Location: Azul
(36.7830°S, 59.8500°W)
Time: 00:37:41
(UTC-03:00)

NOAA 15 - Pass Details

Date: 01 November 2021
Orbit: 797 x 813 km, 98.7° (Epoch: 30 November)

Event Time Altitude Azimuth Distance (km) Brightness Sun altitude
Rises 21:20:29 0° 175° (S) 3,346 8.3 -19.8°
Reaches altitude 10° 21:22:56 10° 182° (S) 2,410 7.6 -20.2°
Maximum altitude 21:27:54 41° 251° (WSW) 1,158 5.9 -21.0°
Drops below altitude 10° 21:32:51 10° 319° (NW) 2,392 7.1 -21.7°
Sets 21:35:17 0° 326° (NW) 3,317 7.7 -22.1°
